GW0996 Weather Reports


time (UTC)temp
F
wind
direction
speed
knots
gust
knots
rain 1hr
in
rain 24hr
in
rain mn
in
humidity
%
barometer
mb
20260503050154 42 22 0.0 0.0 0.00 0.00 0.00 93 1020.6
20260503045653 42 22 0.0 0.0 0.00 0.00 0.00 93 1020.3
20260503045155 41 22 0.0 0.0 0.00 0.00 0.00 93 1020.6
20260503044653 41 22 0.0 0.0 0.00 0.00 0.00 93 1020.3
20260503044155 42 23 0.0 0.0 0.00 0.00 0.00 93 1020.4
20260503043653 42 23 0.0 0.0 0.00 0.00 0.00 93 1020.4
20260503043152 41 23 0.0 0.0 0.00 0.00 0.00 93 1020.3
20260503042652 41 23 0.0 0.0 0.00 0.00 0.00 93 1020.1
20260503042153 41 23 0.0 0.9 0.00 0.00 0.00 93 1020.1
20260503041654 41 23 0.0 0.9 0.00 0.00 0.00 92 1020.3
20260503041153 42 20 0.0 0.9 0.00 0.00 0.00 92 1020.3
20260503040651 42 28 0.0 0.0 0.00 0.00 0.00 93 1020.2
20260503040152 42 28 0.0 0.0 0.00 0.00 0.00 93 1020.1
20260503033652 42 29 0.0 0.0 0.00 0.00 0.00 92 1020.1
20260503033152 42 29 0.0 0.0 0.00 0.00 0.00 92 1020.2
20260503032652 42 29 0.0 0.0 0.00 0.00 0.00 92 1019.9
20260503032152 42 29 0.0 0.0 0.00 0.00 0.00 92 1020.1
20260503031653 42 29 0.0 0.0 0.00 0.00 0.00 92 1020.1
20260503030653 42 29 0.0 0.0 0.00 0.00 0.00 92 1020.0
20260503030152 43 29 0.0 0.0 0.00 0.00 0.00 91 1020.1
20260503025652 43 29 0.0 0.0 0.00 0.00 0.00 91 1020.1
20260503025152 43 30 0.0 0.0 0.00 0.00 0.00 91 1020.0
20260503024651 43 30 0.0 0.0 0.00 0.00 0.00 91 1020.0
20260503024152 43 30 0.0 0.0 0.00 0.00 0.00 91 1020.0
20260503023652 43 30 0.0 0.0 0.00 0.00 0.00 91 1020.0
20260503023133 43 30 0.0 0.0 0.00 0.00 0.00 90 1019.8
20260503022627 43 30 0.0 0.0 0.00 0.00 0.00 90 1020.1
20260503022128 43 30 0.0 0.0 0.00 0.00 0.00 90 1020.0
20260503021622 43 30 0.0 0.0 0.00 0.00 0.00 90 1020.1
20260503021117 43 30 0.0 0.0 0.00 0.00 0.00 91 1019.8
20260503020616 43 30 0.0 0.0 0.00 0.00 0.00 90 1019.7
20260503020110 43 28 0.0 0.0 0.00 0.00 0.00 89 1019.9
20260503015607 44 28 0.0 0.0 0.00 0.00 0.00 89 1019.8
20260503015052 44 25 0.0 0.0 0.00 0.00 0.00 90 1019.8
20260503014055 44 26 0.0 0.0 0.00 0.00 0.00 89 1019.9
20260503013052 44 26 0.0 0.0 0.00 0.00 0.00 88 1019.9
20260503012552 44 26 0.0 0.0 0.00 0.00 0.00 88 1020.0
20260503012052 44 26 0.0 0.0 0.00 0.00 0.00 88 1020.1
20260503011053 45 17 0.0 0.0 0.00 0.00 0.00 86 1019.9
20260503010553 46 17 0.0 0.0 0.00 0.00 0.00 87 1020.2
20260503010053 45 20 0.0 0.0 0.00 0.00 0.00 87 1020.0
20260503005554 45 22 0.0 0.0 0.00 0.00 0.00 85 1020.2
20260503005052 46 6 0.0 0.0 0.00 0.00 0.00 84 1020.2
20260503004551 46 4 0.0 0.0 0.00 0.00 0.00 84 1020.2
20260503003551 46 5 0.0 0.0 0.00 0.00 0.00 86 1020.5
20260503003053 46 353 0.0 0.0 0.00 0.00 0.00 85 1020.3
20260503002554 46 353 0.0 0.0 0.00 0.00 0.00 84 1020.4
20260503002054 46 353 0.0 0.0 0.00 0.00 0.00 84 1020.2
20260503001555 47 353 0.0 0.0 0.00 0.00 0.00 83 1020.3
20260503001054 47 353 0.0 0.9 0.00 0.00 0.00 83 1020.3
20260503000552 47 350 0.0 1.7 0.00 0.00 0.00 83 1020.1
20260503000052 47 348 0.0 1.7 0.00 0.00 0.00 84 1020.0
20260502235554 47 91 0.0 0.0 0.00 0.00 0.00 85 1020.4
20260502235052 46 92 0.0 0.0 0.00 0.00 0.00 85 1020.3
20260502234552 46 93 0.0 0.0 0.00 0.00 0.00 84 1020.5
20260502234052 47 92 0.0 0.9 0.00 0.00 0.00 84 1020.6
20260502233552 47 94 0.0 0.9 0.00 0.00 0.00 84 1020.3
20260502233051 47 87 0.0 0.9 0.00 0.00 0.00 83 1020.3
20260502232553 47 33 0.0 0.9 0.00 0.00 0.00 82 1020.5
20260502232053 47 37 0.0 0.9 0.00 0.00 0.00 81 1020.5
20260502231553 47 37 0.0 0.9 0.00 0.00 0.00 83 1020.3
20260502231053 47 61 0.0 0.0 0.00 0.00 0.00 82 1020.5
20260502230052 48 55 0.0 0.0 0.00 0.00 0.00 82 1020.5
20260502225552 48 55 0.0 0.0 0.00 0.00 0.00 81 1020.5
20260502223554 49 55 0.0 0.0 0.00 0.00 0.00 79 1020.6
20260502223048 49 54 0.0 0.0 0.00 0.00 0.00 80 1020.6
20260502222544 49 47 0.0 0.0 0.00 0.00 0.00 79 1020.6
20260502222042 49 47 0.0 0.9 0.00 0.00 0.00 79 1020.5
20260502221534 49 47 0.0 0.9 0.00 0.00 0.00 79 1020.6
20260502221028 49 47 0.0 0.0 0.00 0.00 0.00 77 1020.3
20260502220528 50 42 0.0 0.0 0.00 0.00 0.00 76 1020.4
20260502220024 51 42 0.0 0.0 0.00 0.00 0.00 75 1020.3
20260502215515 50 48 0.0 0.0 0.00 0.00 0.00 76 1020.5
20260502214958 51 60 0.0 0.9 0.00 0.00 0.00 74 1020.5
20260502214451 51 58 0.0 0.9 0.00 0.00 0.00 74 1020.4
20260502213953 51 58 0.0 0.9 0.00 0.00 0.00 74 1020.4
20260502212953 52 40 0.0 0.9 0.00 0.00 0.00 73 1020.5
20260502212455 52 36 0.0 0.9 0.00 0.00 0.00 73 1020.4
20260502211942 51 121 0.0 0.9 0.00 0.00 0.00 74 1020.2
20260502210943 52 60 0.0 0.0 0.00 0.00 0.00 73 1020.3
20260502210443 52 60 0.0 0.0 0.00 0.00 0.00 72 1020.4
20260502205942 53 47 0.0 0.0 0.00 0.00 0.00 72 1020.3
20260502205441 53 39 0.0 0.0 0.00 0.00 0.00 71 1020.4
20260502204941 54 38 0.0 0.0 0.00 0.00 0.00 70 1020.4
20260502204440 53 38 0.0 0.0 0.00 0.00 0.00 70 1020.3
20260502203942 53 42 0.0 0.0 0.00 0.00 0.00 70 1020.5
20260502202941 54 42 0.0 0.0 0.00 0.00 0.00 68 1020.4
20260502202440 55 42 0.0 0.0 0.00 0.00 0.00 66 1020.5
20260502201941 55 43 0.0 0.0 0.00 0.00 0.00 66 1020.4
20260502200941 55 119 0.0 0.0 0.00 0.00 0.00 66 1020.3
20260502200440 55 120 0.0 0.0 0.00 0.00 0.00 66 1020.3
20260502195941 56 119 0.0 0.0 0.00 0.00 0.00 65 1020.4
20260502194941 56 119 0.0 0.9 0.00 0.00 0.00 65 1020.3
20260502194441 56 119 0.0 0.9 0.00 0.00 0.00 66 1020.0
20260502193935 56 49 0.0 0.9 0.00 0.00 0.00 65 1020.0
20260502193429 57 17 0.0 2.6 0.00 0.00 0.00 64 1020.0
20260502192407 57 123 0.0 0.9 0.00 0.00 0.00 65 1020.1
20260502191352 58 131 0.0 0.9 0.00 0.00 0.00 64 1020.0
20260502190855 58 130 0.0 0.9 0.00 0.00 0.00 63 1019.8
20260502190354 58 129 0.0 1.7 0.00 0.00 0.00 63 1019.9
20260502185854 59 129 0.0 1.7 0.00 0.00 0.00 62 1019.7
20260502184853 59 133 0.0 0.9 0.00 0.00 0.00 62 1019.4
20260502184353 60 129 0.0 0.9 0.00 0.00 0.00 61 1019.7
20260502183856 61 73 0.0 0.9 0.00 0.00 0.00 58 1019.3
20260502183351 62 79 0.0 0.9 0.00 0.00 0.00 58 1019.3
20260502182852 62 79 0.0 0.9 0.00 0.00 0.00 56 1019.3
20260502182352 63 82 0.9 0.9 0.00 0.00 0.00 56 1019.4
20260502181353 64 2 0.0 0.9 0.00 0.00 0.00 53 1019.1
20260502180352 65 359 0.0 2.6 0.00 0.00 0.00 53 1019.1
20260502170341 73 161 0.0 1.7 0.00 0.00 0.00 33 1018.7
20260502164334 74 118 0.9 1.7 0.00 0.00 0.00 33 1018.7
20260502163828 74 180 0.0 0.9 0.00 0.00 0.00 30 1018.8
20260502163327 74 136 0.0 0.0 0.00 0.00 0.00 31 1018.9
20260502162823 74 86 0.0 0.0 0.00 0.00 0.00 31 1018.7
20260502162316 74 86 0.0 0.9 0.00 0.00 0.00 30 1019.0
20260502161816 74 85 0.0 0.9 0.00 0.00 0.00 29 1019.0
20260502161310 74 41 0.0 0.9 0.00 0.00 0.00 31 1018.9
20260502160805 74 8 0.0 0.9 0.00 0.00 0.00 30 1018.9
20260502160304 74 146 0.0 0.9 0.00 0.00 0.00 30 1018.9
20260502152248 75 230 0.0 0.9 0.00 0.00 0.00 29 1019.3
20260502151741 75 236 0.0 0.9 0.00 0.00 0.00 29 1019.2
20260502151243 75 191 0.0 0.9 0.00 0.00 0.00 30 1019.5
20260502150734 75 184 0.0 0.9 0.00 0.00 0.00 30 1019.4
20260502150230 75 185 0.0 0.9 0.00 0.00 0.00 30 1019.3
20260502130651 78 193 0.0 0.9 0.00 0.00 0.00 28 1021.1
20260502130154 77 188 0.0 1.7 0.00 0.00 0.00 27 1021.0
20260502123152 76 112 0.9 2.6 0.00 0.00 0.00 29 1021.5
20260502122654 77 226 0.0 1.7 0.00 0.00 0.00 26 1021.5
20260502122153 77 165 0.0 1.7 0.00 0.00 0.00 29 1021.5
20260502121153 75 211 0.0 3.5 0.00 0.00 0.00 28 1021.6
20260502120653 77 141 0.0 1.7 0.00 0.00 0.00 28 1021.6
20260502114640 75 146 0.9 2.6 0.00 0.00 0.00 28 1021.9
20260502114143 75 123 0.9 3.5 0.00 0.00 0.00 28 1022.1
20260502112641 75 156 0.9 1.7 0.00 0.00 0.00 28 1022.2
20260502112142 74 179 0.9 1.7 0.00 0.00 0.00 30 1022.1
20260502111641 73 240 0.0 1.7 0.00 0.00 0.00 29 1022.3
20260502111142 73 114 0.0 1.7 0.00 0.00 0.00 31 1022.4
20260502110641 75 152 0.9 0.9 0.00 0.00 0.00 26 1022.7
20260502110142 76 180 0.0 0.9 0.00 0.00 0.00 26 1022.6
20260502105642 76 124 0.0 0.9 0.00 0.00 0.00 28 1022.7
20260502105142 76 148 0.0 0.9 0.00 0.00 0.00 26 1023.0
20260502104641 75 140 0.0 0.9 0.00 0.00 0.00 27 1022.9
20260502104141 74 159 0.0 1.7 0.00 0.00 0.00 29 1022.9
20260502103641 74 163 0.9 0.9 0.00 0.00 0.00 28 1023.0
20260502103143 74 184 0.0 0.9 0.00 0.00 0.00 26 1023.1
20260502102641 74 212 0.0 0.9 0.00 0.00 0.00 27 1023.3
20260502100640 73 339 0.0 0.9 0.00 0.00 0.00 30 1023.5
20260502100140 73 349 0.0 0.9 0.00 0.00 0.00 30 1023.3
20260502090616 70 279 0.0 0.9 0.00 0.00 0.00 39 1023.9
20260502090110 69 287 0.0 0.9 0.00 0.00 0.00 35 1024.1
20260502071506 54 3 0.0 0.0 0.00 0.00 0.00 56 1024.8
20260502071006 52 3 0.0 0.9 0.00 0.00 0.00 62 1024.9
20260502065953 52 7 0.0 0.0 0.00 0.00 0.00 62 1024.7
20260502065456 49 8 0.0 0.0 0.00 0.00 0.00 67 1025.0
20260502064952 49 8 0.0 0.0 0.00 0.00 0.00 66 1025.1
20260502064439 48 7 0.0 0.9 0.00 0.00 0.00 69 1024.9
20260502063939 47 7 0.0 0.9 0.00 0.00 0.00 69 1025.0
20260502063440 48 7 0.0 0.0 0.00 0.00 0.00 67 1025.1
20260502062940 46 7 0.0 0.0 0.00 0.00 0.00 72 1025.0
20260502062439 47 7 0.0 0.0 0.00 0.00 0.00 69 1025.1
20260502061941 46 7 0.0 0.0 0.00 0.00 0.00 71 1025.0
20260502061442 46 7 0.0 0.0 0.00 0.00 0.00 72 1025.0
20260502060928 45 7 0.0 0.0 0.00 0.00 0.00 73 1025.0
20260502060428 44 7 0.0 0.0 0.00 0.00 0.00 75 1025.0
20260502055928 43 8 0.0 0.0 0.00 0.00 0.00 78 1025.1
20260502055415 42 8 0.0 0.0 0.00 0.00 0.00 79 1025.0
20260502054916 42 8 0.0 0.0 0.00 0.00 0.00 79 1025.1
20260502054416 41 8 0.0 0.0 0.00 0.00 0.00 81 1025.2
20260502053903 41 8 0.0 0.0 0.00 0.00 0.00 80 1024.9
20260502053405 40 8 0.0 0.9 0.00 0.00 0.00 81 1024.9
20260502052906 40 8 0.0 0.9 0.00 0.00 0.00 83 1025.2
20260502052353 39 90 0.0 0.9 0.00 0.00 0.00 83 1025.1
20260502051855 39 128 0.0 0.0 0.00 0.00 0.00 84 1025.1
20260502051353 39 128 0.0 0.0 0.00 0.00 0.00 84 1025.0
20260502050841 39 128 0.0 0.0 0.00 0.00 0.00 84 1025.0